TimeMDT,TemperatureF,Dew PointF,Humidity,Sea Level PressureIn,VisibilityMPH,Wind Direction,Wind SpeedMPH,Gust SpeedMPH,PrecipitationIn,Events,Conditions,WindDirDegrees,DateUTC
12:53 AM,17.1,10.0,74,30.47,10.0,NNE,8.1,-,N/A,,Clear,20,2013-04-09 06:53:00
1:53 AM,17.1,10.0,74,30.49,10.0,NE,6.9,-,N/A,,Scattered Clouds,40,2013-04-09 07:53:00
2:53 AM,16.0,9.0,74,30.51,10.0,North,8.1,-,N/A,,Clear,10,2013-04-09 08:53:00
3:53 AM,16.0,9.0,74,30.51,10.0,NNE,6.9,-,N/A,,Clear,20,2013-04-09 09:53:00
4:53 AM,16.0,9.0,74,30.53,10.0,NNE,6.9,-,N/A,,Clear,20,2013-04-09 10:53:00
5:53 AM,15.1,9.0,77,30.54,10.0,NNE,4.6,-,N/A,,Clear,20,2013-04-09 11:53:00
6:53 AM,15.1,9.0,77,30.57,10.0,North,4.6,-,N/A,,Clear,350,2013-04-09 12:53:00
7:53 AM,16.0,9.0,74,30.58,10.0,NW,4.6,-,N/A,,Partly Cloudy,320,2013-04-09 13:53:00
8:53 AM,17.1,10.9,77,30.59,10.0,NW,4.6,-,N/A,,Scattered Clouds,310,2013-04-09 14:53:00
9:05 AM,17.6,10.4,73,30.46,10.0,NW,5.8,-,N/A,,Mostly Cloudy,310,2013-04-09 15:05:00
9:53 AM,19.0,10.0,68,30.59,5.0,North,5.8,-,0.00,Snow,Light Snow,350,2013-04-09 15:53:00
10:53 AM,19.9,10.9,68,30.60,10.0,NW,10.4,-,0.00,,Overcast,320,2013-04-09 16:53:00
11:53 AM,21.9,10.9,63,30.60,10.0,NW,8.1,-,N/A,,Mostly Cloudy,310,2013-04-09 17:53:00
12:07 PM,23.0,10.4,59,30.46,10.0,NNW,8.1,-,N/A,,Scattered Clouds,330,2013-04-09 18:07:00
12:17 PM,23.0,12.2,63,30.46,10.0,North,8.1,-,N/A,,Mostly Cloudy,360,2013-04-09 18:17:00
12:53 PM,24.1,12.0,60,30.57,10.0,North,8.1,-,N/A,,Overcast,360,2013-04-09 18:53:00
1:53 PM,25.0,14.0,63,30.55,10.0,Variable,5.8,-,N/A,,Overcast,0,2013-04-09 19:53:00
2:53 PM,26.1,12.9,58,30.54,10.0,North,5.8,-,N/A,,Mostly Cloudy,360,2013-04-09 20:53:00
3:53 PM,28.9,15.1,56,30.52,10.0,North,8.1,-,N/A,,Scattered Clouds,10,2013-04-09 21:53:00
4:53 PM,28.9,14.0,54,30.50,10.0,NE,6.9,-,N/A,,Partly Cloudy,40,2013-04-09 22:53:00
5:53 PM,28.9,14.0,54,30.51,10.0,NNE,6.9,-,N/A,,Scattered Clouds,30,2013-04-09 23:53:00
6:53 PM,28.0,12.9,53,30.51,10.0,North,3.5,-,N/A,,Partly Cloudy,10,2013-04-10 00:53:00
7:53 PM,26.1,12.9,58,30.50,10.0,East,4.6,-,N/A,,Clear,90,2013-04-10 01:53:00
8:53 PM,26.1,14.0,60,30.50,10.0,East,3.5,-,N/A,,Clear,100,2013-04-10 02:53:00
9:53 PM,24.1,16.0,71,30.50,10.0,SSE,5.8,-,N/A,,Clear,160,2013-04-10 03:53:00
10:53 PM,23.0,15.1,72,30.49,10.0,SSW,4.6,-,N/A,,Clear,200,2013-04-10 04:53:00
11:53 PM,24.1,16.0,71,30.46,10.0,SSW,4.6,-,N/A,,Clear,200,2013-04-10 05:53:00